When you browse on this site, cookies collect data to enhance your experience and personalize the content and advertising you see.
Visit our Privacy Policy to learn more. By continuing to use the site, you agree to this use of cookies and data.

Tiempo cada hora Granada

Hoy, 23 Septiembre, Miércoles

Tiempo Temperatura Precipitaciones Viento Presión Humedad
00:00 +22°C° 0 mm 1 mps 701 mmHg 43%
01:00 +21°C° 0 mm 1 mps 701 mmHg 46%
02:00 +21°C° 0 mm 1 mps 701 mmHg 48%
03:00 +20°C° 0 mm 1 mps 700 mmHg 51%
04:00 +20°C° 0 mm 1 mps 700 mmHg 50%
05:00 +20°C° 0 mm 1 mps 701 mmHg 49%
06:00 +21°C° 0 mm 1 mps 701 mmHg 48%
07:00 +21°C° 0 mm 2 mps 701 mmHg 46%
08:00 +23°C° 0 mm 2 mps 702 mmHg 44%
09:00 +24°C° 0 mm 2 mps 702 mmHg 41%
10:00 +25°C° 0 mm 3 mps 702 mmHg 40%
11:00 +26°C° 0 mm 4 mps 702 mmHg 39%
12:00 +27°C° 0 mm 5 mps 702 mmHg 37%
13:00 +28°C° 0 mm 5 mps 702 mmHg 37%
14:00 +28°C° 0 mm 5 mps 702 mmHg 37%
15:00 +28°C° 0 mm 5 mps 701 mmHg 37%
16:00 +27°C° 0 mm 5 mps 701 mmHg 42%
17:00 +26°C° 0 mm 4 mps 701 mmHg 47%
18:00 +25°C° 0 mm 3 mps 701 mmHg 52%
19:00 +24°C° 0 mm 3 mps 701 mmHg 55%
20:00 +23°C° 0 mm 2 mps 702 mmHg 59%
21:00 +22°C° 0 mm 1 mps 702 mmHg 63%
22:00 +22°C° 0 mm 1 mps 702 mmHg 65%
23:00 +21°C° 0 mm 1 mps 702 mmHg 67%

Mañana, 24 Septiembre, Jueves

Tiempo Temperatura Precipitaciones Viento Presión Humedad
00:00 +21°C° 0 mm 1 mps 702 mmHg 69%
01:00 +20°C° 0 mm 1 mps 702 mmHg 70%
02:00 +20°C° 0 mm 1 mps 702 mmHg 72%
03:00 +20°C° 0 mm 1 mps 701 mmHg 74%
04:00 +19°C° 0 mm 1 mps 701 mmHg 74%
05:00 +19°C° 0 mm 1 mps 701 mmHg 75%
06:00 +19°C° 0 mm 1 mps 701 mmHg 75%
07:00 +21°C° 0 mm 1 mps 702 mmHg 68%
08:00 +23°C° 0 mm 2 mps 703 mmHg 61%
09:00 +24°C° 0 mm 2 mps 703 mmHg 54%
10:00 +25°C° 0 mm 2 mps 703 mmHg 49%
11:00 +27°C° 0 mm 3 mps 703 mmHg 45%
12:00 +28°C° 0 mm 4 mps 703 mmHg 40%
13:00 +28°C° 0 mm 4 mps 703 mmHg 39%
14:00 +29°C° 0 mm 5 mps 703 mmHg 38%
15:00 +29°C° 0 mm 6 mps 703 mmHg 37%
16:00 +28°C° 0 mm 5 mps 703 mmHg 41%
17:00 +26°C° 0 mm 4 mps 702 mmHg 46%
18:00 +25°C° 0 mm 4 mps 702 mmHg 51%
19:00 +24°C° 0 mm 3 mps 703 mmHg 55%
20:00 +22°C° 0 mm 3 mps 703 mmHg 60%
21:00 +23°C° 0 mm 2 mps 704 mmHg 64%
22:00 +21°C° 0 mm 2 mps 704 mmHg 67%
23:00 +21°C° 0 mm 2 mps 704 mmHg 70%

Pasado mañana, 25 Septiembre, Viernes

Tiempo Temperatura Precipitaciones Viento Presión Humedad
00:00 +20°C° 0 mm 2 mps 704 mmHg 73%
01:00 +20°C° 0 mm 2 mps 703 mmHg 75%
02:00 +19°C° 0 mm 2 mps 703 mmHg 77%
03:00 +19°C° 0 mm 2 mps 703 mmHg 79%
04:00 +19°C° 0 mm 2 mps 703 mmHg 81%
05:00 +18°C° 0 mm 2 mps 703 mmHg 82%
06:00 +18°C° 0 mm 2 mps 703 mmHg 84%
07:00 +19°C° 0 mm 3 mps 704 mmHg 71%
08:00 +21°C° 0 mm 3 mps 704 mmHg 58%
09:00 +22°C° 0 mm 3 mps 705 mmHg 45%
10:00 +23°C° 0 mm 4 mps 705 mmHg 37%
11:00 +25°C° 0 mm 4 mps 705 mmHg 28%
12:00 +27°C° 0 mm 4 mps 706 mmHg 19%
13:00 +27°C° 0 mm 4 mps 705 mmHg 20%
14:00 +27°C° 0 mm 5 mps 705 mmHg 20%
15:00 +27°C° 0 mm 5 mps 705 mmHg 20%
16:00 +25°C° 0 mm 4 mps 705 mmHg 23%
17:00 +23°C° 0 mm 4 mps 705 mmHg 26%
18:00 +21°C° 0 mm 3 mps 705 mmHg 29%
19:00 +20°C° 0 mm 3 mps 705 mmHg 30%
20:00 +19°C° 0 mm 2 mps 705 mmHg 31%
21:00 +18°C° 0 mm 2 mps 706 mmHg 32%
22:00 +19°C° 0 mm 1 mps 706 mmHg 34%
23:00 +18°C° 0 mm 1 mps 706 mmHg 35%

26 Septiembre, Sábado

Tiempo Temperatura Precipitaciones Viento Presión Humedad
00:00 +18°C° 0 mm 1 mps 706 mmHg 37%
01:00 +16°C° 0 mm 1 mps 705 mmHg 39%
02:00 +15°C° 0 mm 0 mps 705 mmHg 40%
03:00 +14°C° 0 mm 0 mps 705 mmHg 42%
04:00 +14°C° 0 mm 0 mps 705 mmHg 46%
05:00 +13°C° 0 mm 0 mps 705 mmHg 49%
06:00 +13°C° 0 mm 0 mps 705 mmHg 52%
07:00 +16°C° 0 mm 1 mps 706 mmHg 49%
08:00 +18°C° 0 mm 1 mps 706 mmHg 46%
09:00 +20°C° 0 mm 1 mps 707 mmHg 43%
10:00 +20°C° 0 mm 2 mps 707 mmHg 40%
11:00 +21°C° 0 mm 2 mps 707 mmHg 38%
12:00 +23°C° 0 mm 2 mps 707 mmHg 35%
13:00 +24°C° 0 mm 3 mps 706 mmHg 34%
14:00 +24°C° 0 mm 3 mps 706 mmHg 32%
15:00 +25°C° 0 mm 3 mps 706 mmHg 31%
16:00 +22°C° 0 mm 3 mps 706 mmHg 33%
17:00 +21°C° 0 mm 2 mps 705 mmHg 35%
18:00 +20°C° 0 mm 2 mps 705 mmHg 37%
19:00 +19°C° 0 mm 2 mps 705 mmHg 37%
20:00 +19°C° 0 mm 1 mps 705 mmHg 37%
21:00 +18°C° 0 mm 1 mps 705 mmHg 38%
22:00 +18°C° 0 mm 1 mps 705 mmHg 39%
23:00 +16°C° 0 mm 1 mps 705 mmHg 41%

27 Septiembre, Domingo

Tiempo Temperatura Precipitaciones Viento Presión Humedad
00:00 +16°C° 0 mm 1 mps 704 mmHg 43%
01:00 +15°C° 0 mm 0 mps 704 mmHg 44%
02:00 +14°C° 0 mm 0 mps 704 mmHg 46%
03:00 +14°C° 0 mm 0 mps 703 mmHg 47%
04:00 +14°C° 0 mm 0 mps 703 mmHg 48%
05:00 +13°C° 0 mm 0 mps 703 mmHg 49%
06:00 +13°C° 0 mm 0 mps 703 mmHg 50%
07:00 +15°C° 0 mm 0 mps 704 mmHg 45%
08:00 +19°C° 0 mm 1 mps 704 mmHg 41%
09:00 +21°C° 0 mm 1 mps 704 mmHg 36%
10:00 +22°C° 0 mm 1 mps 704 mmHg 34%
11:00 +23°C° 0 mm 1 mps 704 mmHg 32%
12:00 +25°C° 0 mm 2 mps 704 mmHg 30%
13:00 +25°C° 0 mm 2 mps 704 mmHg 30%
14:00 +26°C° 0 mm 2 mps 703 mmHg 30%
15:00 +26°C° 0 mm 3 mps 703 mmHg 29%
16:00 +25°C° 0 mm 2 mps 703 mmHg 32%
17:00 +24°C° 0 mm 2 mps 703 mmHg 36%
18:00 +23°C° 0 mm 2 mps 702 mmHg 39%
19:00 +21°C° 0 mm 2 mps 702 mmHg 41%
20:00 +20°C° 0 mm 2 mps 703 mmHg 42%
21:00 +19°C° 0 mm 2 mps 703 mmHg 44%
22:00 +19°C° 0 mm 1 mps 703 mmHg 45%
23:00 +19°C° 0 mm 1 mps 702 mmHg 46%

28 Septiembre, Lunes

Tiempo Temperatura Precipitaciones Viento Presión Humedad
00:00 +18°C° 0 mm 1 mps 702 mmHg 48%
01:00 +18°C° 0 mm 1 mps 702 mmHg 49%
02:00 +18°C° 0 mm 1 mps 702 mmHg 50%
03:00 +16°C° 0 mm 1 mps 701 mmHg 51%
04:00 +16°C° 0 mm 1 mps 701 mmHg 52%
05:00 +16°C° 0 mm 1 mps 701 mmHg 53%
06:00 +16°C° 0 mm 1 mps 701 mmHg 54%
07:00 +18°C° 0 mm 1 mps 702 mmHg 49%
08:00 +20°C° 0 mm 1 mps 702 mmHg 43%
09:00 +22°C° 0 mm 1 mps 703 mmHg 38%
10:00 +23°C° 0 mm 1 mps 703 mmHg 36%
11:00 +24°C° 0 mm 1 mps 703 mmHg 34%
12:00 +25°C° 0 mm 1 mps 703 mmHg 32%
13:00 +26°C° 0 mm 1 mps 702 mmHg 31%
14:00 +26°C° 0 mm 1 mps 702 mmHg 31%
15:00 +26°C° 0 mm 1 mps 701 mmHg 30%
16:00 +25°C° 0 mm 1 mps 701 mmHg 33%
17:00 +25°C° 0 mm 1 mps 701 mmHg 37%
18:00 +24°C° 0 mm 1 mps 701 mmHg 40%
19:00 +23°C° 0 mm 1 mps 701 mmHg 42%
20:00 +22°C° 0 mm 1 mps 701 mmHg 44%
21:00 +22°C° 0 mm 1 mps 701 mmHg 45%
22:00 +21°C° 0 mm 1 mps 701 mmHg 48%
23:00 +20°C° 0 mm 1 mps 701 mmHg 51%
Mostrar más